Regional Weather Roundup
Issued by NWS

Home | Current Version | Previous Version | Graphics & Text | Print | Product List | Glossary On
Versions: 1 2 3 4 5 6 7 8 9 10 11 12 13 14 15 16 17 18 19 20 21 22 23 24 25 26 27 28 29 30 31 32 33 34 35 36 37 38 39 40 41 42 43 44 45 46 47 48 49 50
000
ASUS43 KIND 282359
RWRIN

WEATHER ROUNDUP FOR INDIANA
NATIONAL WEATHER SERVICE INDIANAPOLIS IN
800 PM EDT THU APR 28 2016

NOTE: "FAIR" INDICATES FEW OR NO CLOUDS BELOW 12,000 FEET WITH NO
SIGNIFICANT WEATHER AND/OR OBSTRUCTIONS TO VISIBILITY.

* - STATION DOES NOT REPORT WEATHER SUCH AS PRECIPITATION OR FOG.

+ - STATION NOT QUALITY CONTROLLED BY THE NATIONAL WEATHER SERVICE.
    USE DATA WITH CAUTION...ESPECIALLY DEWPOINT AND RELATIVE
    HUMIDITY OBSERVATIONS.

INZ001>003-010>013-019-020-290100-
NORTHWEST INDIANA

CITY           SKY/WX    TMP DP  RH WIND       PRES   REMARKS
GARY /AIRPORT/ CLOUDY    46  46 100 N6        29.95R
RENSSELAER +   CLOUDY    57  52  82 NE6       29.92R

$$

LMZ046-743>745-290100-
SOUTHERN LAKE MICHIGAN

STATION/POSITION TIME  TEMP    WIND        PRES    WAVE
                       AIR SEA DIR/SP/G            HT
                 (UTC) (F)     (DEG/KT/KT) (MB)    (FT)
BURNS HARBOR     2311   45      40/  7/ 11 1014.2R
MICHIGAN CITY    2300   45      10/  8/  9   N/A

$$

INZ004-005-014>016-021>024-290100-
NORTH CENTRAL INDIANA

CITY           SKY/WX    TMP DP  RH WIND       PRES   REMARKS
ELKHART        CLOUDY    52  48  87 E5        29.95R
GOSHEN         CLOUDY    52  45  77 E8        29.94R
6HR MIN TEMP:  51; 6HR MAX TEMP:  54;

SOUTH BEND     CLOUDY    51  45  79 E5        29.95R
6HR MIN TEMP:  51; 6HR MAX TEMP:  53;


$$

INZ006>009-017-018-025>027-290100-
NORTHEAST INDIANA

CITY           SKY/WX    TMP DP  RH WIND       PRES   REMARKS
ANGOLA *+      CLOUDY    46  36  66 E9        29.94R
FORT WAYNE     CLOUDY    50  46  86 E7        29.95R
6HR MIN TEMP:  49; 6HR MAX TEMP:  54; 6HR PCP:  0.04;


$$

INZ028-029-035-036-043>045-051>053-290100-
WEST CENTRAL INDIANA

CITY           SKY/WX    TMP DP  RH WIND       PRES   REMARKS
CRAWFORDSVL +  CLOUDY    60  57  91 NE6       29.90R
6HR MIN TEMP:  60; 6HR MAX TEMP:  65;

GREENCASTLE +  CLOUDY    66  54  63 W6        29.90R
LAFAYETTE      CLOUDY    59  53  80 N7        29.90R
6HR MIN TEMP:  58; 6HR MAX TEMP:  64; 6HR PCP: TRACE;

TERRE HAUTE    MOCLDY    68  51  54 NW16G23   29.90R
6HR MIN TEMP:  67; 6HR MAX TEMP:  72; 6HR PCP:  0.02;


$$

INZ030>032-037>040-046>048-054>057-064-065-290100-
CENTRAL INDIANA

CITY           SKY/WX    TMP DP  RH WIND       PRES   REMARKS
INDIANAPOLIS   PTCLDY    64  56  75 N9        29.88R
6HR MIN TEMP:  64; 6HR MAX TEMP:  75; 6HR PCP:  0.05;

-EAGLE CREEK   PTCLDY    63  56  78 NE7       29.89R
6HR MIN TEMP:  63; 6HR MAX TEMP:  74; 6HR PCP: TRACE;

KOKOMO *+      MOCLDY    54  48  82 E8        29.92R
6HR MIN TEMP:  54; 6HR MAX TEMP:  57;

SHELBYVILLE    PTCLDY    64  57  78 N7        29.89R
6HR MIN TEMP:  64; 6HR MAX TEMP:  75; 6HR PCP:  0.15;


$$

INZ033-034-041-042-049-050-058-059-290100-
EAST CENTRAL INDIANA

CITY           SKY/WX    TMP DP  RH WIND       PRES   REMARKS
MUNCIE         CLOUDY    55  50  83 NE8       29.92R HAZE
6HR MIN TEMP:  55; 6HR MAX TEMP:  65; 6HR PCP:  0.03;


$$

INZ060-061-067>069-081>083-085>088-290100-
SOUTHWEST INDIANA

CITY           SKY/WX    TMP DP  RH WIND       PRES   REMARKS
EVANSVILLE     CLEAR     73  48  41 W8        29.91R
6HR MIN TEMP:  73; 6HR MAX TEMP:  76;

HUNTINGBURG *+ CLEAR     70  52  52 W13       29.91R
6HR MIN TEMP:  70; 6HR MAX TEMP:  75;


$$

INZ062-063-066-070>080-084-089>092-290100-
SOUTH CENTRAL AND SOUTHEAST INDIANA

CITY           SKY/WX    TMP DP  RH WIND       PRES   REMARKS
BLOOMINGTON    CLEAR     69  49  48 W9        29.89R
6HR MIN TEMP:  69; 6HR MAX TEMP:  74;

MADISON *+     CLEAR     72  45  37 W7        29.90S
SEYMOUR +      CLEAR     70  52  52 W8        29.89R

$$




USA.gov is the U.S. government's official web portal to all federal, state and local government web resources and services.